ECMWFFLT1_sfc_temp_021.txt.gz
Temp
98 97 98 100 99 99 98 96 96 96 95 94 94 94 95 94 93 92 91 90 89 88 89 89 89 89 89 89 90 90 90 89 89 89 89 89 90 89 88 89 88 87 89 88 87 87 88 89 89 89 88 87 86 86 85 85 85 85 85 84 84 84 84
99 100 100 101 100 99 98 97 96 97 96 95 94 93 95 94 93 92 91 90 90 89 89 89 89 89 89 89 90 90 89 89 89 89 89 89 89 89 90 88 88 87 88 89 89 89 89 89 89 88 87 86 86 86 86 85 84 84 84 83 83 82 83
101 100 99 98 98 100 97 98 97 97 96 97 96 95 94 92 92 92 91 91 89 89 90 90 89 90 90 89 89 89 90 90 89 89 89 90 90 91 90 89 89 89 89 90 89 90 90 89 88 87 87 86 87 85 85 85 84 84 84 83 83 83 82
99 100 100 100 100 99 99 99 98 99 99 99 97 96 94 92 93 93 93 92 90 90 89 90 90 90 90 89 89 89 89 89 90 90 90 91 90 90 90 89 89 90 89 89 90 90 90 88 88 87 86 86 85 86 85 85 85 84 84 83 83 83 82
101 101 99 99 100 100 99 99 99 97 100 101 99 95 94 95 95 95 94 94 94 91 92 92 93 92 91 91 91 90 90 90 90 90 91 91 90 90 89 90 90 90 90 90 89 88 87 87 87 86 85 85 86 85 84 85 85 83 83 83 82 82 82
102 101 101 101 102 101 100 101 102 101 101 101 99 97 97 98 98 98 96 94 94 95 93 92 92 91 90 91 91 91 91 90 90 90 90 90 90 90 90 90 90 90 92 89 90 88 87 86 86 85 85 86 86 85 85 84 85 85 83 81 80 81 82
103 101 100 101 102 102 101 101 103 103 102 102 102 100 100 100 98 99 99 97 97 94 95 95 94 93 91 91 91 91 90 90 90 90 91 91 91 89 89 89 90 91 91 90 88 88 87 85 85 85 85 85 84 84 83 82 83 83 81 79 78 79 80
103 102 101 102 104 106 104 102 102 103 102 102 103 101 101 101 100 101 100 100 99 99 97 98 95 93 91 91 92 91 91 91 92 91 91 91 90 89 90 90 90 90 90 89 88 87 88 85 87 86 85 86 83 82 82 81 82 84 82 79 78 78 80
107 103 103 104 104 105 104 102 101 101 99 99 100 99 100 101 101 101 101 101 100 100 99 101 100 96 92 91 91 91 92 92 91 91 91 91 91 93 92 92 90 90 89 88 89 88 87 86 87 84 84 84 83 82 82 81 81 82 81 80 79 78 79
104 101 100 104 104 106 103 104 101 98 98 97 97 97 98 100 101 102 103 103 103 101 101 101 101 99 94 92 92 92 91 91 91 92 93 93 93 93 93 94 91 89 89 89 90 88 87 86 85 84 83 83 82 82 81 81 81 81 81 80 79 78 78
105 102 100 101 101 101 102 103 99 96 96 94 95 100 97 99 101 103 102 103 103 103 104 102 101 100 97 95 95 93 91 92 93 92 92 93 94 94 94 95 94 91 91 90 91 89 87 85 85 83 82 83 82 81 80 80 80 79 80 80 80 79 79
98 100 97 98 98 100 100 98 97 95 95 94 97 99 96 96 101 103 103 102 104 104 103 103 104 102 98 97 95 92 92 92 91 91 92 94 94 95 95 96 93 92 91 91 91 89 88 85 85 84 82 82 82 81 81 80 79 79 78 80 80 79 80
100 98 96 98 96 98 97 96 95 95 95 97 99 98 99 99 101 103 99 100 104 104 103 101 102 99 100 98 97 93 92 91 91 91 93 91 92 94 94 95 95 94 92 91 91 91 89 87 85 83 82 82 82 82 81 80 80 79 78 79 79 79 79
95 98 97 96 96 95 95 95 95 94 94 95 97 97 98 99 101 100 99 100 102 105 105 104 101 99 98 96 94 92 92 91 91 91 90 91 91 91 92 93 93 93 91 91 91 92 90 88 85 84 84 82 82 82 81 80 80 79 78 78 79 79 80
99 99 97 96 93 93 93 94 93 92 94 94 96 95 96 98 99 98 99 101 100 105 105 101 99 98 99 96 93 92 91 91 91 91 90 90 90 90 90 90 91 91 91 89 90 91 91 88 86 84 82 82 82 81 81 80 80 80 79 78 78 80 81
104 103 100 96 95 95 93 94 93 91 92 91 93 93 96 95 95 98 99 100 102 101 104 100 98 95 96 95 93 92 91 90 90 90 89 89 88 89 89 89 90 91 90 89 89 88 88 86 85 85 83 82 81 81 81 79 79 74 69 72 79 80 81
103 105 104 101 95 94 94 93 92 91 90 91 92 93 93 94 95 97 101 101 102 100 103 103 96 96 95 93 93 92 91 89 89 89 88 87 88 88 87 87 88 89 87 86 86 87 85 85 85 85 84 82 82 81 81 80 79 69 66 67 71 79 80
102 102 103 103 101 96 93 93 92 91 91 93 94 93 93 92 95 97 98 100 100 102 104 101 98 95 92 93 92 91 89 89 88 87 87 87 86 86 87 87 87 86 85 85 85 85 85 85 83 83 83 83 83 82 81 80 71 66 65 66 67 71 81
101 103 103 101 99 95 96 96 94 92 93 95 95 94 95 95 96 94 96 96 97 99 101 101 98 92 92 92 91 89 88 88 87 86 85 85 86 86 86 85 85 84 84 84 84 85 83 82 82 82 83 82 80 81 81 82 70 64 64 65 65 66 73
103 104 106 106 105 99 95 95 96 95 95 94 96 99 98 96 96 95 98 99 98 98 96 95 94 92 91 91 89 88 88 87 87 86 85 85 84 85 85 85 84 84 85 85 84 83 82 82 81 81 80 80 80 79 81 82 69 63 63 64 64 65 69
101 101 102 103 102 104 95 94 95 95 94 97 98 97 97 96 98 97 99 98 97 95 94 94 93 91 90 89 89 88 87 87 87 86 86 85 84 82 83 84 84 84 85 85 84 82 81 81 81 80 80 81 81 80 81 83 66 62 62 62 62 63 67
105 105 103 104 100 95 95 98 96 98 94 97 98 99 99 98 100 99 100 100 97 96 95 93 92 90 89 88 89 88 88 87 87 86 86 86 85 83 82 82 83 83 84 84 84 83 83 82 83 81 80 80 79 80 78 82 62 62 61 61 61 62 73
107 106 106 105 104 100 99 98 98 99 95 97 99 99 99 100 101 99 99 98 97 94 95 93 91 90 89 88 89 89 88 88 87 86 85 85 84 83 82 81 81 82 84 84 84 83 82 81 82 81 81 79 78 79 79 82 64 60 59 60 59 64 75
109 108 108 109 105 104 99 98 99 99 98 98 99 100 100 100 100 97 96 95 95 94 93 92 90 90 89 89 89 89 88 88 87 85 85 85 84 84 84 83 82 82 83 83 84 84 84 83 82 81 80 79 79 80 79 81 67 57 57 58 57 67 77
110 110 110 110 108 102 100 97 97 98 96 97 99 99 99 99 99 97 93 93 94 94 92 90 90 90 89 90 90 89 88 88 87 86 86 85 85 86 84 82 82 83 83 83 83 83 83 83 82 81 80 82 81 75 78 81 69 55 57 57 56 68 78
104 106 108 108 106 102 97 94 95 95 97 97 96 98 97 99 96 93 92 94 95 93 92 91 90 91 91 91 90 89 88 88 86 86 85 85 85 86 86 84 84 83 82 82 83 82 83 82 81 79 78 79 79 79 80 79 77 65 56 56 56 61 76
106 105 106 106 103 94 96 95 95 95 98 96 95 98 98 98 95 92 92 92 91 90 92 92 92 91 90 90 90 89 88 88 87 85 85 86 85 87 86 85 84 83 82 83 82 80 79 79 79 79 77 79 79 80 80 80 80 70 54 54 55 58 65
102 104 105 101 94 94 95 97 94 96 98 95 96 98 98 95 91 90 90 91 90 91 94 92 91 90 89 88 88 88 88 88 86 85 85 85 85 84 83 84 84 83 82 82 79 77 76 76 76 77 78 78 78 77 77 77 76 71 57 56 54 56 58
96 98 96 93 93 95 96 94 93 96 96 97 99 98 96 93 89 89 89 89 89 91 90 90 89 88 88 87 87 86 86 86 84 83 84 84 84 84 83 83 83 82 80 78 77 76 75 74 74 76 77 76 76 76 76 72 69 63 63 53 54 55 57
94 93 93 97 97 95 97 93 94 95 95 97 95 93 92 89 87 86 86 85 87 88 88 87 87 87 86 85 85 85 85 84 84 85 85 85 84 84 82 81 81 80 78 76 76 75 74 74 75 75 76 75 72 74 73 71 69 63 61 58 54 52 52
91 91 94 94 96 94 94 93 91 92 91 91 90 90 89 89 86 84 83 84 86 86 86 86 85 85 84 85 84 84 84 83 83 83 84 84 84 81 81 80 80 76 76 75 75 74 73 74 76 75 75 75 73 73 71 72 71 68 62 58 54 53 52
92 93 94 94 92 92 93 93 91 89 88 88 89 89 88 88 87 83 83 85 85 86 85 84 83 82 81 81 81 81 83 82 83 83 83 83 82 81 81 80 79 76 75 76 75 74 74 74 75 75 75 74 74 71 71 70 70 67 64 60 59 58 55
89 89 89 89 89 88 89 89 89 88 89 88 90 91 92 89 88 85 84 84 86 86 83 81 79 78 79 80 82 82 82 82 82 82 82 81 81 82 81 80 78 76 74 75 76 76 76 76 76 75 75 73 72 72 72 71 71 68 66 66 66 68 63
86 87 88 88 89 89 89 89 88 87 86 85 87 88 89 88 86 86 86 88 88 85 81 79 80 81 81 82 83 82 83 82 80 80 81 79 80 80 79 78 78 76 74 77 77 76 76 77 76 76 76 74 73 71 72 71 72 69 68 71 71 70 67
83 83 85 86 87 86 85 85 86 85 86 86 88 88 88 89 89 88 86 87 87 84 83 81 81 82 83 83 83 82 81 81 81 81 79 78 74 67 65 70 77 78 76 67 67 72 79 80 78 77 79 77 72 71 71 73 72 75 67 73 63 68 69
85 85 85 85 85 84 84 84 84 83 84 85 87 88 88 88 89 91 93 90 88 86 83 82 84 84 85 85 85 84 82 81 82 80 78 78 75 71 64 51 44 54 72 71 56 48 46 54 73 75 80 76 75 75 74 75 77 55 49 51 52 51 50
85 85 85 86 85 83 82 82 82 82 82 84 85 86 88 88 91 89 90 87 87 86 84 84 84 85 86 84 85 81 80 81 80 78 78 78 77 76 73 70 62 44 42 49 50 46 42 42 43 46 55 71 74 61 48 50 48 46 47 44 43 43 44
86 86 85 85 84 82 81 81 82 82 82 84 85 85 85 86 86 85 87 86 85 85 83 84 84 85 85 87 83 78 80 81 78 78 77 76 75 75 74 74 71 65 47 41 45 45 41 41 41 43 46 49 59 68 69 52 45 45 44 43 42 41 40

ECMWFFLT1_sfc_temp_024.txt.gz
Temp
99 99 97 96 96 97 95 93 92 92 92 92 91 92 93 92 90 89 88 87 86 85 86 86 86 86 86 86 86 86 86 86 86 86 85 85 85 85 84 85 85 84 84 83 83 83 84 85 84 84 83 83 83 83 82 82 81 83 81 81 80 79 80
98 98 98 98 98 97 95 93 93 94 95 93 92 91 93 91 90 89 88 87 86 86 86 86 86 86 86 86 86 86 86 86 86 85 86 85 85 85 86 85 84 84 84 84 84 84 84 86 85 84 83 83 83 83 82 81 81 81 80 80 79 79 80
98 99 98 97 97 97 93 95 93 94 95 96 94 93 92 89 90 89 88 88 86 86 87 86 86 86 87 86 86 86 86 87 86 86 86 86 86 88 87 86 85 85 86 85 85 85 86 85 84 83 84 83 83 82 81 81 80 80 80 79 79 79 78
96 98 98 97 96 95 95 95 95 97 98 98 96 95 92 89 91 90 90 89 87 87 86 87 87 87 87 86 86 86 86 86 87 87 87 87 87 87 86 86 85 86 85 85 87 87 87 85 85 84 84 82 82 82 82 81 81 80 80 79 78 79 78
96 97 98 97 98 96 96 96 97 96 99 100 98 93 92 92 92 92 91 91 91 88 89 88 90 89 87 88 87 87 87 87 87 87 87 87 87 87 86 87 86 87 86 87 86 85 84 84 85 83 83 82 82 81 81 81 80 79 79 79 77 78 78
94 96 96 98 99 99 98 99 100 101 99 99 98 95 95 95 95 95 94 91 91 91 89 89 88 87 87 88 88 88 87 87 87 86 87 87 86 86 87 87 87 87 87 86 87 86 85 84 84 83 83 84 83 82 82 81 81 81 79 79 78 78 79
96 97 97 98 99 100 100 100 101 101 100 100 100 98 97 97 96 96 95 93 93 89 90 90 90 89 88 88 87 87 87 87 87 87 88 88 87 87 86 87 86 87 87 86 86 86 85 84 83 83 82 83 82 82 80 79 80 79 79 77 77 77 77
99 98 97 99 101 103 103 101 101 102 99 97 99 100 98 97 96 96 96 95 93 93 92 92 90 89 88 88 88 88 88 88 89 88 88 88 87 87 87 87 87 86 86 86 86 86 86 84 84 83 82 83 81 80 80 79 79 81 79 77 77 77 79
100 97 98 101 101 103 103 100 99 98 93 93 95 96 98 96 96 96 96 95 94 93 92 93 93 91 88 88 88 87 88 88 88 88 88 88 88 90 90 89 88 87 86 87 88 86 86 84 84 82 81 81 80 80 80 79 79 79 79 77 77 77 78
99 95 96 101 101 102 99 98 95 92 90 90 91 93 95 96 96 96 96 96 96 94 94 94 95 93 90 89 89 89 88 87 88 89 90 89 90 90 90 91 89 88 88 88 89 86 85 84 83 82 80 80 80 80 79 79 79 79 79 78 77 77 76
97 94 95 99 97 97 97 97 93 90 91 89 90 95 94 95 95 96 96 97 96 96 96 96 95 94 92 91 91 90 88 89 89 89 89 89 91 91 92 91 91 89 89 89 89 87 85 83 83 81 80 80 80 79 79 79 79 79 79 79 78 77 77
92 94 92 94 95 96 96 93 92 90 90 90 93 95 92 92 95 97 97 97 98 97 97 97 98 96 93 92 91 89 89 89 89 89 89 90 91 91 92 92 91 90 89 89 89 87 86 84 83 82 80 80 80 80 79 79 79 78 78 80 79 77 78
94 92 93 96 93 94 92 90 90 90 90 93 96 96 95 95 96 97 94 95 99 98 98 96 97 94 94 93 92 89 89 88 88 89 90 89 89 91 91 92 93 92 90 90 89 88 87 85 83 82 81 80 80 80 79 79 79 78 78 78 77 77 77
92 96 96 95 94 93 92 91 90 90 91 94 95 95 96 97 97 96 95 96 98 100 100 99 96 94 93 92 90 88 89 88 88 88 88 88 88 89 91 92 91 90 88 88 88 88 87 86 83 83 82 81 80 80 79 79 79 78 78 78 78 77 77
96 97 96 96 92 91 91 92 90 90 92 93 95 95 96 97 96 95 95 97 96 101 100 97 95 94 94 91 89 88 88 88 89 89 88 88 88 88 89 89 89 88 88 86 88 88 89 87 85 82 80 81 80 80 80 79 79 79 78 77 77 77 77
100 99 96 95 93 94 91 92 92 91 91 91 93 93 96 94 93 96 96 97 99 97 100 96 94 91 93 91 89 88 88 88 88 87 87 87 87 87 87 89 88 89 87 86 87 86 86 85 83 83 81 80 80 80 79 79 79 74 70 72 77 76 77
100 101 101 95 92 93 92 92 92 91 90 90 92 92 93 93 94 96 100 100 101 97 99 99 93 92 91 89 89 88 88 88 87 87 87 87 87 86 87 87 87 86 86 85 85 85 84 84 83 83 82 81 80 80 79 79 79 68 66 69 71 76 76
98 97 98 97 94 94 91 92 91 91 91 93 94 93 93 92 94 96 98 100 100 102 102 99 95 93 89 89 89 89 88 88 87 87 87 87 86 86 86 86 86 86 85 85 85 84 85 84 82 82 82 81 81 81 80 80 70 65 66 67 68 72 77
99 100 98 93 91 91 95 96 94 91 94 96 95 95 96 95 96 93 95 95 97 99 101 100 97 90 89 89 89 88 88 88 87 87 86 86 86 86 86 86 85 85 85 85 85 85 83 82 82 81 82 81 80 80 80 81 68 65 64 66 65 67 73
100 103 104 101 95 95 94 93 94 94 95 94 95 99 98 96 96 95 97 98 97 97 96 93 92 90 90 89 89 88 88 88 87 86 86 86 86 86 85 85 84 85 85 85 83 83 83 83 82 81 81 80 80 79 80 80 66 64 62 64 64 65 68
94 96 98 99 95 96 92 92 92 92 92 96 97 96 96 96 97 96 97 97 96 94 92 92 91 90 90 89 89 88 88 87 86 86 86 85 85 84 84 84 84 84 84 84 83 82 81 82 82 81 81 81 81 80 80 81 62 62 62 62 62 64 66
101 103 100 99 96 93 91 94 93 95 93 95 95 97 98 97 99 98 98 99 97 95 94 92 90 89 89 88 88 88 87 87 86 85 84 84 84 84 83 83 83 82 83 83 83 83 83 82 83 81 81 81 80 80 79 78 61 62 61 60 61 63 69
104 104 104 101 103 99 93 95 95 96 93 95 97 97 97 99 99 97 97 97 97 93 95 92 88 88 88 88 88 87 87 86 85 84 83 83 82 82 82 82 82 83 83 82 83 83 82 81 82 81 81 80 79 79 77 76 62 60 59 60 60 63 70
105 105 105 105 102 101 94 95 96 96 96 95 95 97 97 99 98 95 93 94 95 93 93 90 88 88 88 87 87 86 87 86 86 84 83 83 82 82 82 83 83 83 83 82 83 85 84 83 82 82 81 80 79 80 78 79 65 59 58 59 60 64 71
106 106 105 104 104 104 98 95 95 97 95 95 96 96 97 97 97 95 91 91 95 94 91 89 88 88 88 88 88 87 87 87 86 85 84 83 83 84 83 82 82 83 83 84 84 84 83 82 81 81 80 82 81 73 78 80 69 56 59 58 58 64 71
100 102 104 104 106 104 97 93 92 94 95 95 93 96 95 96 94 91 90 93 95 93 91 89 88 88 89 89 88 87 87 87 85 84 84 83 84 84 83 83 84 83 83 84 84 81 82 82 82 81 82 82 81 79 79 80 74 62 56 56 56 60 71
102 104 103 106 105 98 97 94 94 95 96 94 92 96 97 96 93 90 90 90 90 89 91 91 89 89 88 88 89 88 87 87 86 85 85 85 84 85 84 84 83 82 81 82 83 81 80 82 82 81 80 81 80 81 80 80 75 65 54 54 55 57 64
99 99 105 99 91 93 96 97 94 95 97 93 94 96 96 93 89 88 88 89 89 90 92 90 89 89 88 87 87 88 87 87 85 85 85 84 83 82 82 82 83 82 81 82 80 78 77 77 77 78 78 78 78 77 77 77 72 68 55 55 54 56 58
93 93 93 93 95 96 97 94 93 96 97 97 98 97 95 94 88 88 87 88 88 91 90 89 89 88 87 86 86 85 86 85 84 84 85 84 84 83 81 81 81 80 79 78 76 76 75 75 75 75 74 75 75 75 76 76 74 63 62 55 54 53 56
92 93 94 97 97 97 97 92 94 96 97 98 96 94 94 91 87 86 87 87 89 90 89 88 88 87 85 84 85 85 85 84 84 84 84 83 83 82 79 79 80 78 76 75 74 74 73 74 73 73 73 74 74 75 75 74 72 63 61 59 54 53 53
87 90 95 96 96 94 95 93 92 94 94 93 92 92 90 90 87 86 86 87 87 87 87 86 86 85 84 84 84 83 84 83 83 83 83 82 82 79 78 79 78 75 75 75 74 73 73 72 73 72 72 73 73 74 73 72 70 66 61 58 56 55 54
87 88 89 90 92 93 92 94 94 93 91 89 89 88 87 89 87 83 83 86 85 86 86 85 84 83 83 83 83 83 83 82 82 82 81 81 81 79 79 78 77 75 74 75 74 73 73 72 73 73 73 73 74 73 71 70 68 65 62 60 59 59 56
84 86 86 85 87 91 92 94 94 92 90 87 88 88 88 87 86 84 84 84 86 86 84 83 82 81 81 81 81 81 81 80 80 80 81 80 80 80 80 78 76 75 74 75 75 74 74 74 74 74 74 73 73 72 70 69 67 65 64 65 65 65 61
83 83 84 85 86 83 88 87 89 87 86 84 86 87 87 86 86 86 86 88 88 86 83 81 80 81 80 81 80 80 80 79 79 80 80 79 79 80 80 78 76 76 75 75 76 74 73 74 73 73 74 74 73 72 71 69 67 66 66 68 68 68 66
81 81 81 81 80 79 77 81 83 81 84 83 86 86 85 86 88 90 88 87 86 83 82 81 80 81 82 82 81 80 79 81 81 80 73 67 61 55 55 63 72 75 67 63 63 69 76 77 74 75 77 77 72 71 70 71 69 70 63 70 63 68 69
79 79 79 82 82 81 79 80 81 82 81 81 84 85 84 85 86 87 88 87 85 83 81 80 82 82 83 82 82 82 81 81 82 76 73 71 65 63 60 53 44 54 69 66 56 49 45 55 72 75 79 77 74 72 73 73 74 59 54 52 52 54 57
81 79 78 81 81 80 80 80 81 82 82 83 84 85 86 86 88 86 87 85 85 84 82 82 81 82 83 82 83 81 81 82 79 76 73 71 69 67 64 62 59 45 43 50 51 46 44 42 43 51 65 73 71 58 51 53 49 48 47 47 46 46 47
83 82 82 82 81 80 80 80 81 81 81 82 83 84 84 86 86 85 86 85 85 84 83 83 82 82 83 82 80 77 78 79 76 76 73 71 70 70 67 66 63 60 48 43 45 45 42 42 42 44 52 58 60 61 59 50 46 46 46 46 46 45 44

ECMWFFLT1_sfc_temp_030.txt.gz
Temp
87 87 87 87 87 87 86 85 85 86 85 84 84 84 84 84 83 82 81 80 80 79 79 80 80 80 79 79 80 80 80 80 79 79 79 79 79 78 77 77 77 76 77 76 76 76 77 77 77 77 77 76 76 74 74 74 73 74 73 72 72 72 72
86 87 87 88 87 87 86 86 86 87 86 85 84 84 85 84 83 82 81 81 80 80 80 80 80 80 80 80 80 80 79 80 80 80 79 79 79 79 79 78 78 77 77 77 77 77 77 77 78 77 76 77 77 75 74 73 73 72 73 72 72 71 71
86 87 87 87 87 86 86 86 86 87 87 86 86 85 84 83 83 82 81 81 80 80 80 80 80 80 80 80 79 79 80 80 79 79 79 79 78 79 79 78 78 78 78 78 77 77 78 77 77 77 77 77 77 75 74 73 73 72 72 72 72 72 70
86 87 87 87 87 87 87 87 86 87 88 88 87 86 85 84 84 83 83 82 81 80 79 80 80 80 80 80 79 79 79 80 80 80 80 80 79 79 79 78 78 78 77 77 78 78 78 78 77 77 78 76 76 75 74 74 74 73 71 72 72 72 71
87 88 88 87 87 86 86 87 87 87 88 89 87 86 86 85 85 84 83 83 83 81 81 81 82 81 81 81 80 80 80 80 80 80 80 80 80 79 79 78 78 78 78 78 78 77 77 77 77 77 77 76 75 74 74 74 74 73 71 71 71 71 71
87 87 87 88 88 88 87 88 89 89 89 88 87 86 86 86 86 85 84 83 83 83 82 82 81 81 80 81 81 81 81 80 81 80 80 80 80 79 79 79 79 78 78 78 78 78 77 77 77 77 77 76 76 75 74 74 74 73 72 71 71 71 71
88 88 88 89 89 88 88 88 89 90 90 90 89 87 87 87 86 86 86 84 83 82 82 82 82 82 81 81 81 80 80 80 80 80 81 80 80 79 79 79 79 79 79 79 78 78 77 77 77 77 77 76 75 75 74 73 73 73 72 71 70 70 71
89 88 88 89 90 90 90 89 89 90 90 89 88 87 87 87 87 86 85 85 84 84 83 83 82 81 81 81 81 81 80 81 81 81 81 80 80 80 79 79 79 79 79 78 78 78 78 77 77 77 77 76 75 75 75 74 73 73 72 71 71 70 71
89 90 90 91 91 92 91 89 89 88 88 87 87 86 86 86 87 86 86 86 85 84 83 84 83 83 82 81 81 81 81 81 81 80 80 80 80 80 80 80 80 80 79 79 79 79 79 78 77 77 77 76 75 75 75 74 74 73 72 72 71 71 71
88 88 89 91 92 93 91 90 88 86 85 85 85 84 85 86 87 87 87 86 86 84 84 84 84 84 82 81 81 81 81 80 81 81 81 80 81 80 81 81 80 80 79 79 80 78 79 79 78 77 76 76 75 75 75 74 74 73 73 72 72 71 71
88 87 88 89 90 90 89 88 85 84 85 84 84 85 85 86 86 87 86 87 86 85 86 85 85 84 83 82 81 81 81 80 81 80 80 81 81 81 82 82 82 81 80 80 79 79 78 78 78 77 76 76 75 75 74 74 74 73 73 73 73 72 72
86 87 86 88 88 88 87 85 84 83 83 83 84 85 84 85 86 87 87 87 87 86 85 85 85 85 83 83 81 80 80 80 80 80 80 81 81 82 82 82 82 81 81 80 80 79 79 78 78 77 76 76 76 76 75 75 74 73 73 73 73 72 72
85 85 86 87 87 87 85 82 83 83 83 84 85 85 85 86 86 87 86 86 87 87 86 85 85 84 83 83 82 80 80 80 80 81 81 81 81 82 82 82 83 82 81 81 81 80 79 79 78 78 77 76 76 76 75 75 74 74 73 73 73 72 71
83 85 86 86 85 84 83 82 83 82 82 84 85 85 85 86 87 87 86 86 87 87 87 86 85 84 83 82 81 81 81 81 81 81 81 81 81 81 82 82 82 81 81 81 80 80 79 79 78 78 77 77 76 76 76 75 74 74 73 73 73 72 71
79 81 82 83 82 83 82 82 81 82 83 84 85 85 85 85 86 86 86 87 87 88 87 86 85 84 83 82 81 81 81 81 81 81 81 81 81 81 81 81 81 81 81 80 80 81 81 80 79 77 76 76 76 76 75 74 74 74 74 72 72 72 72
82 84 84 82 81 83 83 83 82 82 83 83 84 84 84 84 84 86 86 87 88 87 88 86 84 83 83 82 81 81 81 81 81 81 81 80 80 80 81 81 81 81 80 80 80 80 80 79 79 78 77 76 75 75 75 74 74 71 66 69 73 72 72
83 84 85 85 84 84 84 83 83 82 82 82 83 84 85 85 85 86 88 88 88 87 88 87 84 83 83 82 82 81 81 81 80 80 80 80 80 80 80 80 81 80 80 80 79 79 79 79 78 78 78 77 76 75 75 75 75 67 64 66 68 72 72
80 81 83 84 84 84 81 82 82 82 82 83 84 84 85 84 85 86 86 87 88 88 88 87 85 83 82 83 82 81 81 81 80 80 80 80 80 80 80 80 80 79 79 79 79 79 79 78 78 78 78 77 76 76 75 75 69 65 64 65 66 69 73
78 81 83 83 83 81 82 83 83 82 84 85 85 85 86 86 86 85 86 86 88 88 88 87 85 83 83 83 82 81 81 81 80 80 80 80 80 80 80 80 79 79 79 79 79 79 78 78 78 77 78 77 76 76 76 76 68 64 63 64 65 66 71
80 81 82 84 84 85 84 83 84 84 85 85 86 87 88 88 87 87 88 88 88 87 87 85 85 84 83 83 82 82 81 81 81 80 80 80 80 80 80 79 79 79 80 80 79 79 78 79 78 78 77 77 76 76 76 76 67 63 62 62 63 65 68
77 77 82 83 82 84 83 84 84 84 84 85 87 87 87 87 87 87 87 87 86 86 85 85 85 84 83 82 82 82 81 81 80 80 80 80 80 80 79 79 79 79 80 80 79 79 78 79 78 78 77 77 77 76 76 77 66 61 60 60 61 64 66
84 84 82 81 84 84 83 85 84 85 85 86 86 87 88 88 89 88 88 88 87 86 86 85 84 83 83 82 82 82 82 81 81 80 80 80 80 79 79 79 79 79 79 79 79 80 80 79 79 78 77 77 76 76 75 77 62 60 59 60 60 63 69
79 80 80 79 83 84 84 86 87 87 86 85 85 86 87 89 89 88 87 87 87 86 86 85 83 83 83 82 83 83 83 82 81 80 80 80 79 79 79 79 79 79 80 79 79 79 79 79 79 79 78 76 76 76 75 72 61 59 58 59 59 62 71
80 78 78 81 82 86 84 84 86 87 87 87 86 87 88 89 89 87 86 86 86 85 85 84 84 84 83 83 83 83 83 83 82 81 80 80 79 79 80 80 80 80 80 79 79 79 79 80 79 78 78 76 76 76 74 71 60 57 56 58 58 63 71
82 83 79 79 80 82 84 84 85 86 84 84 85 87 88 88 88 86 84 85 86 86 84 84 85 84 84 84 84 84 84 83 83 82 81 80 80 80 80 80 80 80 80 80 80 79 79 78 78 76 76 77 76 72 73 69 60 55 57 57 57 64 72
77 76 78 77 79 81 82 82 81 82 83 84 86 88 87 88 87 85 84 85 86 85 84 85 86 86 86 86 85 85 84 84 82 82 81 81 81 81 81 81 81 80 79 80 80 79 77 76 76 75 73 73 73 73 72 69 65 59 56 56 56 60 71
77 77 78 79 77 76 78 78 80 82 84 85 84 84 84 84 84 83 83 83 84 84 86 87 87 87 87 86 86 85 84 84 83 82 82 82 81 82 81 81 81 80 79 79 78 75 74 74 74 73 71 72 72 72 71 71 67 62 54 55 55 57 63
74 77 78 77 76 74 75 79 78 80 83 83 80 81 83 83 83 82 83 82 82 84 88 87 87 87 86 85 84 85 84 84 84 83 82 82 81 80 80 80 81 79 79 78 74 73 72 71 71 71 70 70 71 71 70 70 67 66 56 55 54 54 58
71 72 73 73 75 75 77 75 75 79 81 81 79 78 79 80 80 82 82 82 84 87 88 87 87 86 85 84 83 83 84 84 83 82 82 81 81 80 79 78 78 77 76 74 73 72 71 70 70 69 68 68 67 68 69 68 67 62 61 54 52 52 55
71 71 74 75 75 73 74 72 73 75 74 76 76 77 79 81 79 77 76 78 83 86 87 87 87 85 83 82 82 82 83 82 82 83 82 81 80 79 77 76 76 75 74 73 72 71 70 68 68 68 67 67 66 67 66 66 65 60 59 57 53 52 53
68 68 69 69 71 71 74 73 72 71 71 70 71 72 72 74 76 74 74 76 77 77 79 80 80 80 81 81 81 81 81 81 81 81 80 79 79 77 75 74 74 72 71 72 70 70 68 67 68 68 66 66 66 65 64 64 63 62 60 58 55 53 52
68 68 68 68 68 69 72 72 70 69 67 67 68 68 69 70 71 70 69 73 76 78 79 78 77 77 79 80 80 80 80 79 79 78 78 78 78 77 76 74 73 72 71 71 70 69 68 67 67 67 66 65 65 64 63 62 61 60 59 59 56 54 52
66 66 66 65 67 68 68 67 67 66 66 66 68 69 70 70 69 69 70 71 73 75 78 78 78 76 77 78 78 78 78 78 76 76 76 76 76 76 74 74 72 71 70 69 69 68 68 67 67 67 66 65 64 63 62 62 60 59 58 57 56 56 57
66 66 66 66 66 67 66 66 66 67 66 66 67 68 68 69 69 69 69 71 74 76 75 75 76 76 77 77 77 77 77 76 76 75 74 74 74 73 72 72 72 69 67 67 69 69 68 68 67 66 66 64 64 63 63 62 61 60 59 57 57 57 59
67 67 66 66 66 66 65 65 66 66 67 67 68 68 67 67 68 69 69 70 70 72 74 73 74 75 76 75 75 75 75 76 75 74 72 67 62 60 64 68 69 66 64 62 67 71 69 68 66 67 67 67 65 64 63 63 62 62 57 60 56 58 60
66 68 68 68 68 67 67 67 66 66 66 66 67 67 67 67 67 68 70 69 70 70 68 68 68 69 69 70 71 72 73 72 70 68 66 64 60 58 54 50 48 57 66 61 55 59 62 61 67 69 68 67 66 67 66 65 66 55 51 49 49 50 53
67 67 68 68 66 66 66 67 67 66 66 65 66 67 67 67 68 68 69 69 69 69 69 68 68 67 67 67 66 65 66 67 66 67 66 65 63 61 58 57 52 43 43 48 50 50 50 53 54 58 61 67 64 57 55 56 50 48 47 47 47 48 48
68 68 69 70 68 66 66 66 66 66 65 65 65 65 65 67 68 68 69 69 69 69 68 68 66 65 65 65 65 65 64 64 64 64 63 62 62 62 61 60 58 55 45 42 45 45 43 46 50 51 54 57 59 59 57 50 47 46 46 47 47 47 47

ECMWFFLT1_sfc_temp_033.txt.gz
Temp
83 83 83 83 83 83 83 83 83 83 83 82 82 82 83 82 81 80 80 79 79 78 78 78 78 78 78 78 78 78 79 78 78 77 77 77 77 76 76 76 76 75 76 75 75 75 75 76 75 75 75 75 74 74 73 73 72 72 71 70 70 70 70
82 83 84 84 83 83 83 83 83 84 84 84 83 82 83 82 81 80 80 80 79 79 78 78 78 78 78 78 79 78 78 78 78 78 77 77 77 77 77 76 76 76 76 76 76 76 75 76 76 75 75 75 74 74 74 73 72 71 70 70 69 69 70
82 83 84 84 83 83 83 83 83 84 85 85 84 83 83 82 81 81 80 80 79 79 79 79 79 78 79 79 78 78 78 78 78 77 77 77 77 77 77 77 77 77 77 77 76 76 76 76 76 75 75 74 75 74 74 73 73 71 71 70 70 70 69
82 83 84 84 84 84 84 84 84 85 86 86 85 84 83 82 83 82 81 81 80 79 78 79 79 79 79 78 78 78 78 78 78 78 78 78 77 78 77 76 76 77 76 76 77 77 76 76 76 75 76 75 74 74 74 74 73 72 71 70 70 70 70
82 84 85 84 84 84 84 84 84 84 86 87 86 85 84 84 84 83 82 82 82 80 81 80 81 80 80 80 79 79 79 78 78 79 79 79 78 78 77 77 76 76 77 77 76 76 75 75 75 75 75 75 75 74 73 73 72 71 71 70 70 70 70
82 82 84 85 85 85 85 86 86 86 86 86 86 85 85 85 85 84 83 82 82 82 81 81 80 80 79 80 80 79 79 79 79 79 79 79 78 78 77 77 77 77 76 76 77 76 76 76 75 75 75 75 75 75 74 73 72 71 70 70 70 71 70
83 83 84 85 86 86 86 86 87 87 87 87 88 87 86 86 84 84 84 82 82 81 81 81 81 80 80 80 80 79 78 79 78 78 79 79 78 78 78 78 78 77 78 77 76 76 76 75 75 75 75 75 75 75 74 73 72 71 71 69 69 70 70
85 84 84 85 86 87 87 87 87 88 88 87 87 86 85 85 85 84 84 84 83 82 82 81 81 80 80 80 80 79 79 79 79 79 79 79 78 78 78 78 78 78 77 76 77 76 76 76 76 76 76 75 75 75 74 73 73 72 71 70 69 69 70
86 86 85 86 87 88 88 88 88 87 86 85 85 85 85 85 85 84 84 84 83 82 82 83 82 81 81 80 80 79 80 79 79 79 78 78 78 78 79 79 78 78 77 77 77 77 77 76 76 76 75 75 75 74 74 73 73 72 71 71 70 70 70
85 84 84 87 88 88 88 88 87 85 84 83 83 83 84 84 85 85 85 84 84 83 83 83 83 82 81 80 80 80 80 79 79 79 79 78 79 79 79 80 79 78 78 78 78 77 77 77 76 76 75 75 74 74 74 73 73 72 72 71 71 71 70
84 84 85 85 86 86 86 87 85 83 83 82 82 84 84 84 84 85 84 85 84 84 84 84 83 82 81 81 80 80 79 79 79 79 79 79 79 79 80 80 80 79 78 78 77 77 77 76 76 75 75 75 75 74 74 74 73 72 72 72 72 72 71
80 81 81 82 85 85 85 84 84 83 82 82 83 84 83 83 84 85 85 85 85 85 84 84 84 83 82 81 80 79 79 79 79 79 79 79 79 80 80 80 80 79 79 78 78 77 77 76 76 76 75 75 75 75 74 74 73 73 72 72 72 72 72
81 80 80 82 83 85 84 82 82 82 82 83 84 84 84 84 84 85 84 84 85 85 84 84 83 82 82 81 81 79 79 79 79 79 79 79 79 80 80 80 80 80 79 79 79 78 77 77 76 76 76 75 75 75 74 74 73 73 72 72 72 71 71
80 81 81 82 83 83 82 82 82 81 82 83 83 84 84 84 85 85 84 84 85 85 85 84 83 82 82 81 80 79 79 80 80 80 79 80 79 79 80 80 80 79 79 79 78 78 78 77 76 76 76 75 75 75 75 74 73 73 72 72 72 71 71
78 81 83 83 83 83 82 82 80 81 82 82 83 83 83 84 84 84 84 85 84 85 85 84 83 82 81 81 80 79 80 80 80 80 79 79 79 79 79 79 79 79 79 78 78 79 79 78 77 76 75 75 75 75 75 74 74 74 73 72 71 71 71
79 81 82 82 82 83 83 83 82 81 81 81 82 82 83 83 82 83 84 84 85 85 85 84 82 81 81 80 80 80 80 80 80 79 79 79 78 78 79 79 79 79 78 78 78 78 78 78 77 77 76 75 74 74 74 74 74 71 66 68 73 71 71
77 79 80 81 80 80 81 82 81 79 79 80 81 82 83 83 83 84 85 85 85 84 85 84 82 81 81 80 80 80 80 79 79 79 78 79 79 78 78 78 78 78 78 78 77 77 77 77 77 76 76 76 75 74 74 74 74 66 64 65 68 71 71
75 75 77 79 80 81 80 81 81 80 80 81 81 82 83 83 83 83 84 85 85 86 86 84 83 81 80 81 80 80 79 79 79 79 78 78 78 78 78 78 78 77 77 77 77 77 77 77 76 76 76 76 75 75 75 75 68 64 63 64 65 68 72
78 78 78 78 78 78 80 81 82 81 83 83 83 83 84 85 84 82 84 84 85 86 85 84 83 81 81 80 80 80 80 79 79 78 78 78 78 78 78 77 77 77 77 77 77 77 76 76 77 76 76 76 75 75 75 75 67 63 62 63 63 65 69
76 80 80 83 84 84 84 84 85 85 84 84 84 86 87 86 85 85 85 86 85 85 84 83 82 82 81 80 80 80 80 79 79 78 78 79 78 78 78 77 77 77 78 78 77 76 76 77 76 76 76 76 75 75 76 75 66 62 61 61 62 64 67
70 72 78 80 80 82 80 80 81 82 82 83 85 85 86 85 85 85 85 84 83 83 83 83 82 81 81 80 80 80 80 79 79 78 78 78 78 78 77 77 77 77 77 78 77 77 76 76 76 76 76 76 76 76 75 76 65 60 59 60 60 62 64
73 73 75 78 79 79 77 78 79 81 82 84 84 85 86 86 86 86 85 85 84 83 83 82 82 81 81 80 80 80 80 79 79 79 78 78 78 77 77 77 77 77 77 77 78 78 78 77 77 77 76 76 76 76 75 76 62 59 59 59 60 62 67
74 74 74 73 76 79 78 80 82 83 81 80 82 83 85 87 87 86 85 83 84 83 83 82 81 81 81 80 81 81 80 80 80 79 78 78 78 77 77 77 77 77 78 77 77 77 77 77 77 77 77 76 76 75 75 74 61 58 57 58 59 61 69
72 72 73 77 76 78 76 75 76 78 80 81 82 84 86 86 86 83 82 82 82 82 81 81 81 81 81 81 81 81 81 81 80 79 78 78 77 77 78 78 78 78 78 77 77 77 78 78 77 77 78 77 76 76 75 73 60 56 56 57 58 62 69
73 73 73 72 75 76 78 77 79 80 79 80 81 83 83 83 84 82 80 80 82 82 81 81 82 81 81 82 82 82 82 82 81 80 79 78 78 79 78 78 78 79 78 78 78 78 78 78 77 77 77 78 77 72 74 73 61 55 56 57 57 62 70
70 71 73 70 71 71 73 75 76 75 78 79 81 82 81 83 82 80 80 80 81 81 80 81 82 83 83 84 83 83 82 82 81 80 80 79 79 79 79 79 79 78 78 78 79 78 78 78 77 77 77 76 76 74 75 72 64 59 55 56 55 59 70
69 70 71 71 71 71 70 71 73 78 80 81 80 79 80 81 81 80 80 80 80 80 82 83 84 83 83 84 84 83 82 82 82 81 81 81 80 80 80 80 79 79 78 78 78 78 77 77 77 77 76 75 75 74 73 71 67 61 55 55 55 56 63
69 70 71 70 71 70 70 70 69 71 74 73 75 77 78 79 79 79 79 79 80 82 85 85 84 84 83 82 82 83 82 82 82 82 81 81 80 79 79 79 80 79 79 78 77 76 76 76 75 76 73 72 72 72 71 70 66 65 55 55 54 55 59
66 66 67 67 68 69 70 68 68 68 68 69 70 71 75 76 77 78 78 78 80 84 84 84 83 82 81 80 80 81 81 82 81 81 81 81 80 79 78 79 79 78 78 77 76 75 75 74 74 72 70 69 69 70 70 69 67 61 60 54 54 54 55
65 66 66 68 68 68 68 66 66 66 66 67 68 67 69 75 76 75 73 76 76 73 75 78 78 79 79 78 79 80 81 81 82 82 82 81 80 79 79 78 78 78 77 77 76 74 73 72 71 71 69 68 67 67 67 68 68 61 59 58 54 53 53
64 64 65 65 66 67 67 65 65 66 66 67 67 68 67 68 73 72 75 73 71 74 74 75 76 76 76 77 78 78 80 80 81 81 81 81 80 79 78 78 78 77 77 76 75 74 73 71 70 70 69 68 66 66 65 66 66 64 61 58 54 53 53
63 64 65 66 66 67 66 66 66 66 66 66 67 68 68 68 69 73 71 68 70 74 77 77 77 77 77 77 77 78 79 78 79 80 80 80 81 80 80 79 77 77 76 75 74 73 72 69 69 69 68 67 67 65 64 63 63 62 60 59 56 55 53
63 64 64 64 66 66 66 66 66 66 66 66 67 68 69 69 69 68 69 69 70 72 75 77 77 77 77 77 78 78 79 79 79 79 80 80 80 80 79 79 78 76 74 74 74 72 70 69 68 68 68 66 65 65 64 63 62 61 59 57 56 56 56
63 63 64 64 64 64 65 65 64 65 65 65 65 66 67 68 68 68 68 69 69 71 72 74 75 76 77 77 78 78 79 79 79 79 79 79 80 79 77 77 77 74 72 72 71 68 67 67 65 65 66 65 65 64 65 64 62 61 58 56 57 56 58
64 63 63 64 64 64 63 63 63 63 63 63 64 65 65 66 66 67 67 68 68 69 70 71 71 74 75 75 74 73 75 78 77 78 78 76 73 70 74 73 73 71 71 72 71 71 70 69 67 67 67 66 64 64 64 64 62 62 56 59 55 58 60
65 65 64 64 65 64 64 64 63 63 63 63 63 64 64 65 66 66 68 68 68 68 69 68 68 68 70 70 72 74 73 73 73 75 74 70 66 62 56 53 52 62 72 68 66 65 63 62 68 68 67 66 66 68 66 66 67 55 50 49 49 51 53
65 65 66 66 65 65 65 64 65 64 64 63 64 63 64 64 65 66 67 67 67 67 67 67 67 66 66 67 67 68 69 70 71 71 68 67 67 66 62 58 54 43 48 58 60 56 52 54 54 57 62 66 64 57 56 57 50 47 47 47 47 49 49
66 65 67 68 67 66 66 66 66 66 65 64 63 63 63 64 65 66 67 68 68 67 65 66 66 65 64 64 64 64 63 63 63 64 65 65 66 65 62 60 55 53 45 49 54 54 53 52 52 54 55 57 60 58 55 50 47 46 46 46 46 47 47

ECMWFFLT1_sfc_temp_036.txt.gz
Temp
81 80 80 81 81 81 80 80 80 80 80 80 80 80 81 80 79 79 78 77 77 76 77 77 77 77 77 77 77 78 78 78 77 77 77 77 77 76 75 76 76 76 76 76 76 76 77 77 76 76 76 76 76 75 74 74 74 73 72 72 72 72 71
80 80 81 82 81 81 81 81 81 81 81 81 81 80 81 80 79 79 78 78 77 77 77 77 77 77 77 77 78 78 77 78 78 78 77 77 77 76 77 76 76 76 76 76 76 77 77 77 77 76 76 76 76 75 75 74 74 73 72 72 71 71 71
79 81 81 81 81 81 81 81 81 82 82 83 82 82 81 79 80 79 79 78 77 77 78 77 77 77 78 78 77 77 78 78 77 77 77 77 77 78 77 77 76 76 77 77 77 77 77 76 76 76 76 76 76 75 74 74 74 73 72 72 72 72 70
79 80 81 82 82 82 82 82 82 83 84 84 83 83 81 80 81 80 80 80 78 78 77 78 78 78 78 77 77 77 77 78 78 78 78 78 77 77 77 76 76 77 76 76 77 77 77 77 76 76 76 76 75 75 75 74 74 73 73 72 71 72 71
79 81 81 81 82 81 81 82 82 82 84 85 85 83 83 82 82 81 81 81 81 79 80 79 80 79 78 79 78 78 78 78 78 78 78 78 78 77 77 77 77 77 77 77 77 77 76 76 76 76 76 76 76 75 75 75 74 73 72 72 71 71 71
80 79 80 82 82 83 83 83 84 85 85 85 84 84 84 84 84 83 82 81 81 81 80 80 79 79 78 79 79 79 78 78 78 78 78 78 78 77 77 77 77 77 77 77 78 77 77 76 76 76 76 76 76 75 75 75 75 74 73 72 72 72 71
81 80 81 82 83 83 83 84 85 86 86 86 86 86 86 85 84 84 84 82 82 80 80 80 80 80 79 79 78 78 78 78 78 78 79 78 78 77 77 77 77 78 78 77 77 77 77 76 76 76 76 76 76 75 75 74 74 74 73 72 71 71 72
82 81 81 82 84 85 85 84 85 86 86 86 86 86 85 85 85 84 83 83 83 83 82 82 81 79 79 79 79 79 79 79 79 79 79 78 78 78 78 78 78 78 77 77 77 77 77 76 77 76 76 76 75 75 75 74 74 74 73 72 71 72 72
82 82 82 84 84 85 86 85 85 85 84 84 84 84 85 85 85 84 84 84 83 83 82 83 83 82 80 79 79 78 79 79 79 78 78 78 79 79 79 79 78 78 77 77 78 77 77 77 77 76 76 76 75 75 75 74 74 74 73 72 72 72 72
79 79 80 82 83 85 85 85 84 82 82 82 81 82 83 84 84 85 85 85 84 83 83 83 84 83 81 80 79 79 79 78 79 79 79 79 79 79 80 80 79 79 78 78 78 77 77 77 77 76 75 75 75 75 75 74 74 74 73 73 72 72 72
78 78 79 80 79 81 81 83 81 80 81 80 80 83 83 83 84 85 84 85 85 84 85 84 84 83 82 81 81 80 79 79 79 79 79 79 80 80 80 80 80 80 79 79 78 78 77 76 77 76 75 75 75 75 75 75 75 74 74 73 73 73 73
74 75 76 77 77 77 79 80 81 79 79 79 81 83 81 82 84 85 85 85 86 85 84 84 85 84 82 82 81 79 79 79 79 79 79 79 80 80 81 81 80 80 79 79 78 78 78 77 76 76 75 76 76 76 75 75 75 74 74 74 73 73 73
73 74 76 78 77 78 78 77 78 79 79 81 83 83 83 84 84 85 83 83 85 86 85 84 84 82 82 82 81 79 79 79 79 79 79 79 79 80 80 80 81 81 80 79 79 78 78 77 76 76 76 76 76 76 76 75 75 74 74 74 73 73 72
72 73 74 75 75 75 76 77 78 78 79 81 82 82 83 84 85 84 83 83 84 85 85 85 83 82 81 81 80 79 79 79 79 79 79 79 79 79 80 80 80 79 79 79 79 79 78 78 77 77 77 76 76 76 76 75 75 74 74 74 73 73 73
72 73 74 74 73 74 76 77 77 78 79 80 82 81 82 83 83 83 83 84 83 85 85 84 82 81 81 80 79 79 79 79 80 80 79 79 78 79 79 79 79 79 79 78 78 79 79 79 78 77 76 76 76 76 76 75 75 75 75 74 73 73 73
71 73 74 74 74 76 76 78 78 78 79 79 80 80 82 81 81 83 83 83 84 83 85 83 82 80 81 80 79 79 79 79 79 79 79 78 78 78 78 79 79 79 78 78 78 78 78 78 77 77 76 76 76 76 76 75 76 71 65 68 74 73 73
72 73 74 74 73 75 77 78 78 77 77 78 79 80 81 81 82 83 85 85 85 83 85 84 81 81 80 79 80 79 79 79 78 78 78 78 78 78 78 78 78 78 78 78 77 77 77 77 77 77 77 77 76 75 75 76 75 66 63 65 67 73 73
72 71 73 75 74 75 75 77 77 77 78 80 81 81 81 81 82 83 83 84 85 86 86 84 82 81 79 80 79 79 79 79 78 78 78 78 78 78 78 78 78 77 77 77 77 77 77 77 77 77 77 77 77 76 76 76 68 64 63 64 64 68 73
72 72 72 73 73 74 77 80 80 78 81 82 82 82 83 83 83 81 83 83 84 85 84 84 83 80 79 79 79 79 79 78 78 78 78 78 78 78 78 77 77 77 77 77 77 77 76 76 77 77 77 77 76 76 77 77 68 63 62 63 63 65 70
69 73 74 75 75 76 77 78 80 82 82 82 83 85 86 85 84 84 85 85 84 83 82 81 81 80 80 79 79 79 79 78 78 78 78 78 78 78 77 77 77 78 78 78 77 77 77 77 77 77 76 77 76 76 77 77 67 62 61 62 62 63 67
71 71 72 73 72 75 75 76 78 79 80 82 84 83 83 83 84 84 84 83 82 82 81 81 81 80 80 79 79 79 79 78 78 78 78 78 78 78 77 77 77 77 78 78 78 77 76 77 76 77 77 77 77 77 77 78 64 60 60 60 60 62 65
73 72 71 73 72 72 73 76 77 80 80 83 82 83 84 84 85 85 84 85 83 82 82 81 80 80 79 79 79 79 79 79 78 78 78 78 78 77 77 77 77 77 78 78 78 78 79 78 78 77 77 77 77 77 76 78 63 59 59 59 59 61 68
70 71 72 72 73 74 73 74 76 79 79 79 80 81 83 85 85 84 84 83 83 82 82 81 79 79 79 79 80 80 80 79 79 78 78 78 77 77 77 77 77 78 78 77 78 78 78 78 78 78 78 77 77 76 76 78 64 58 57 58 58 61 71
68 67 67 69 69 71 71 72 74 75 77 77 78 81 82 83 84 82 81 81 82 81 81 80 80 80 79 80 80 80 80 80 79 78 78 78 77 77 78 79 79 79 78 78 78 78 79 79 78 78 78 78 77 78 77 78 65 56 56 57 56 63 71
69 68 68 68 69 70 71 72 72 75 75 76 78 78 80 82 83 82 80 80 81 82 80 80 80 80 80 81 81 80 80 80 80 79 79 78 78 79 78 78 78 79 79 79 79 79 79 78 78 78 78 80 79 71 75 78 67 55 56 56 56 63 72
67 67 68 68 69 68 68 70 73 72 74 75 74 76 78 80 80 79 79 80 82 81 80 80 81 81 82 82 81 81 81 81 79 79 79 78 79 79 79 79 79 79 79 79 79 79 79 78 78 78 78 79 79 78 77 78 72 60 55 55 55 59 72
67 67 67 68 68 69 68 68 69 70 71 71 72 76 77 79 78 78 78 78 78 79 81 81 81 81 81 81 82 81 81 81 80 80 80 80 79 80 80 80 79 79 78 79 79 78 77 78 78 78 78 79 78 79 78 78 73 63 54 54 55 56 63
67 68 68 69 69 68 67 67 66 67 68 68 68 74 76 76 76 76 76 76 77 79 82 81 81 81 80 80 80 81 81 81 80 81 80 80 79 78 78 79 80 79 79 79 78 77 76 77 76 77 77 78 77 77 77 75 68 68 56 55 54 55 59
65 65 66 66 66 67 68 66 66 66 67 68 68 67 72 76 75 74 74 75 77 80 81 80 79 79 79 79 79 79 80 80 80 79 80 80 79 79 78 78 79 79 78 77 77 76 76 76 76 76 75 75 75 76 76 76 70 62 61 55 54 53 56
65 66 66 67 67 66 67 66 66 67 67 68 68 68 68 70 74 73 73 75 77 78 78 78 78 77 77 77 78 79 80 80 80 80 80 80 79 79 78 78 78 78 77 77 76 75 75 75 75 75 75 74 74 74 74 74 72 62 59 59 54 53 54
64 65 65 65 66 67 66 66 66 67 67 67 67 68 68 68 69 72 72 70 71 75 75 76 76 76 77 77 77 77 79 79 79 79 80 80 80 78 78 78 78 77 77 77 76 76 75 75 75 74 74 74 73 72 71 70 70 67 62 58 55 54 53
64 65 65 66 65 67 67 68 67 66 66 65 67 67 68 68 68 68 68 69 69 70 74 75 76 76 76 77 77 78 79 78 79 79 80 80 80 79 79 79 78 77 76 76 76 76 76 75 74 74 74 73 73 71 69 68 68 67 64 60 57 56 54
64 64 64 64 65 66 65 66 65 65 65 65 66 67 68 68 68 68 68 68 69 71 72 74 75 75 76 76 77 77 78 78 78 79 79 79 80 81 80 80 79 78 76 76 77 76 76 75 74 74 74 73 72 70 68 67 67 66 64 62 60 59 57
63 63 64 64 65 65 65 65 64 64 64 64 64 65 66 67 67 67 68 68 69 69 71 72 73 74 75 76 76 75 76 77 78 78 79 79 80 80 80 79 80 78 76 76 76 74 74 74 72 72 72 71 71 69 67 66 66 64 62 60 59 58 60
64 64 64 64 65 65 64 64 64 64 64 64 64 65 65 66 66 67 67 68 68 68 69 70 71 73 74 73 75 74 75 76 77 78 78 77 77 77 78 77 77 76 76 78 79 78 77 75 74 73 73 72 69 67 65 65 63 63 58 60 57 59 61
66 66 66 67 67 67 67 66 65 64 63 63 64 65 65 65 66 67 68 68 68 68 68 68 68 68 68 68 69 70 71 71 72 72 74 76 76 76 75 68 61 69 79 77 70 66 66 66 74 75 73 69 68 68 66 64 65 56 51 51 51 52 55
65 65 66 67 67 67 66 66 66 65 64 64 64 64 65 66 67 67 68 68 68 67 67 67 67 66 66 66 65 65 65 66 66 66 67 67 68 70 69 70 69 54 52 54 59 60 58 55 57 58 62 67 66 65 62 62 55 49 48 48 48 49 50
65 65 66 67 66 66 65 65 65 65 64 65 64 64 65 66 67 67 68 68 68 68 67 66 65 64 65 65 65 65 65 64 64 65 65 65 65 66 66 65 64 66 57 51 50 51 52 50 51 54 56 58 62 63 64 56 50 48 47 47 48 49 49